Pellston, MI

12:03 PM EST on February 20, 2017 (GMT -0500)
Pellston Regional Airport Of Emmet County

Weather History for KPLN - February, 2013

Change the Weather History Date:

Saturday, February 23, 2013

  Actual Average Record
Temperature  
Mean Temperature 28 °F -  
Max Temperature 32 °F 31 °F 53 °F (1984)
Min Temperature 24 °F 12 °F -28 °F (1962)
Degree Days  
Heating Degree Days 37    
Moisture  
Dew Point 24 °F    
Average Humidity 85    
Maximum Humidity 93    
Minimum Humidity 69    
Precipitation  
Precipitation 0.01 in - - ()
Sea Level Pressure  
Sea Level Pressure 29.79 in    
Wind  
Wind Speed 2 mph (WSW)    
Max Wind Speed 10 mph    
Max Gust Speed -    
Visibility 6 miles    
Events Snow    
Averages and records for this station are not official NWS values.
T = Trace of Precipitation, MM = Missing Value Source: NWS Daily Summary

Daily Weather History Graph

Daily Weather History Graph

Search for Another Location

Airport or City:

Trip Planner

Search our weather history database for the weather conditions in past years. The results will help you decide how hot, cold, wet, or windy it might be!

Date:

Astronomy

Feb. 23, 2013 Rise Set
Actual Time 7:27 AM EST 6:18 PM EST
Civil Twilight 6:57 AM EST 6:48 PM EST
Nautical Twilight 6:23 AM EST 7:22 PM EST
Astronomical Twilight 5:48 AM EST 7:56 PM EST
Moon 4:24 PM EST (2/23) 5:53 AM EST (2/23)
Length of Visible Light 11h 50m
Length of Day
10h 50m
Waxing Gibbous, 95% of the Moon is Illuminated
Feb 23
Waxing Gibbous
Feb 25
Full
Mar 4
Last Quarter
Mar 11
New
Mar 19
First Quarter

Hourly Weather History & Observations

Time (EST) Temp. Windchill Dew Point Humidity Pressure Visibility Wind Dir Wind Speed Gust Speed Precip Events Conditions
12:02 AM 26.6 °F 22.6 °F 24.8 °F 93% 29.80 in 7.0 mi SE 3.5 mph - 0.00 in   Overcast
12:12 AM 26.6 °F - 24.8 °F 93% 29.79 in 9.0 mi Calm Calm - 0.00 in   Overcast
12:54 AM 26.1 °F - 24.1 °F 92% 29.82 in 5.0 mi Calm Calm - 0.00 in Snow Light Snow
1:41 AM 26.6 °F - 24.8 °F 93% 29.78 in 2.5 mi Calm Calm - 0.00 in Snow Light Snow
1:54 AM 27.0 °F - 24.1 °F 89% 29.81 in 4.0 mi Calm Calm - 0.01 in Snow Light Snow
2:07 AM 26.6 °F - 24.8 °F 93% 29.77 in 2.5 mi Calm Calm - 0.00 in Snow Light Snow
2:25 AM 26.6 °F - 24.8 °F 93% 29.77 in 4.0 mi Calm Calm - 0.00 in Snow Light Snow
2:54 AM 26.1 °F - 24.1 °F 92% 29.80 in 6.0 mi Calm Calm - 0.00 in Snow Light Snow
3:49 AM 26.6 °F - 24.8 °F 93% 29.76 in 4.0 mi Calm Calm - 0.00 in Snow Light Snow
3:54 AM 26.1 °F - 24.1 °F 92% 29.79 in 4.0 mi Calm Calm - 0.00 in Snow Light Snow
4:54 AM 25.0 °F - 23.0 °F 92% 29.78 in 7.0 mi Calm Calm - 0.00 in   Overcast
5:01 AM 24.8 °F - 23.0 °F 93% 29.74 in 6.0 mi Calm Calm - N/A   Overcast
5:54 AM 26.1 °F - 23.0 °F 88% 29.78 in 4.0 mi Calm Calm - 0.00 in Snow Light Snow
6:05 AM 26.6 °F - 23.0 °F 86% 29.75 in 4.0 mi Calm Calm - 0.00 in Snow Light Snow
6:19 AM 26.6 °F - 24.8 °F 93% 29.75 in 4.0 mi Calm Calm - 0.00 in Snow Light Snow
6:49 AM 26.6 °F - 23.0 °F 86% 29.75 in 2.5 mi Calm Calm - 0.00 in Snow Light Snow
6:54 AM 26.1 °F - 23.0 °F 88% 29.78 in 2.5 mi Calm Calm - 0.00 in Snow Light Snow
7:03 AM 26.6 °F - 23.0 °F 86% 29.75 in 2.5 mi Calm Calm - 0.00 in Snow Light Snow
7:54 AM 25.0 °F - 23.0 °F 92% 29.78 in 2.5 mi Calm Calm - 0.00 in Snow Light Snow
8:19 AM 26.6 °F - 23.0 °F 86% 29.75 in 1.8 mi Calm Calm - 0.00 in Snow Light Snow
8:26 AM 26.6 °F - 23.0 °F 86% 29.75 in 2.0 mi Calm Calm - 0.00 in Snow Light Snow
8:54 AM 27.0 °F - 24.1 °F 89% 29.78 in 1.8 mi Calm Calm - 0.00 in Snow Light Snow
9:03 AM 26.6 °F - 24.8 °F 93% 29.75 in 2.0 mi Calm Calm - 0.00 in Snow Light Snow
9:29 AM 26.6 °F - 24.8 °F 93% 29.75 in 2.5 mi Calm Calm - 0.00 in Snow Light Snow
9:54 AM 28.0 °F - 25.0 °F 88% 29.78 in 4.0 mi Calm Calm - 0.00 in   Overcast
10:54 AM 30.0 °F - 26.1 °F 85% 29.78 in 5.0 mi Calm Calm - N/A   Overcast
11:54 AM 30.9 °F 24.3 °F 25.0 °F 79% 29.79 in 4.0 mi West 6.9 mph - 0.00 in Snow Light Snow
12:20 PM 32.0 °F 25.6 °F 23.0 °F 69% 29.76 in 10.0 mi West 6.9 mph - 0.00 in   Overcast
12:54 PM 32.0 °F 24.8 °F 23.0 °F 69% 29.80 in 10.0 mi SW 8.1 mph - 0.00 in   Overcast
1:23 PM 30.2 °F 22.6 °F 23.0 °F 75% 29.76 in 8.0 mi WSW 8.1 mph - 0.00 in   Overcast
1:54 PM 32.0 °F 24.2 °F 23.0 °F 69% 29.79 in 9.0 mi SW 9.2 mph - 0.00 in   Overcast
2:04 PM 32.0 °F 23.6 °F 23.0 °F 69% 29.76 in 8.0 mi WSW 10.4 mph - N/A   Overcast
2:20 PM 30.2 °F 23.4 °F 24.8 °F 80% 29.76 in 2.0 mi SW 6.9 mph - 0.00 in Snow Light Snow
2:30 PM 30.2 °F 22.6 °F 24.8 °F 80% 29.76 in 4.0 mi WSW 8.1 mph - 0.00 in Snow Light Snow
2:54 PM 30.9 °F 24.3 °F 23.0 °F 72% 29.79 in 10.0 mi WSW 6.9 mph - 0.00 in   Overcast
3:19 PM 30.2 °F 24.3 °F 23.0 °F 75% 29.77 in 6.0 mi WSW 5.8 mph - 0.00 in Snow Light Snow
3:38 PM 30.2 °F 23.4 °F 23.0 °F 75% 29.77 in 10.0 mi West 6.9 mph - 0.00 in   Overcast
3:54 PM 30.9 °F 26.2 °F 23.0 °F 72% 29.80 in 10.0 mi WSW 4.6 mph - 0.00 in   Overcast
4:01 PM 30.2 °F 22.6 °F 23.0 °F 75% 29.77 in 8.0 mi West 8.1 mph - N/A   Overcast
4:54 PM 30.0 °F 23.2 °F 24.1 °F 79% 29.80 in 4.0 mi West 6.9 mph - 0.00 in Snow Light Snow
5:54 PM 30.0 °F 26.5 °F 24.1 °F 79% 29.81 in 4.0 mi WSW 3.5 mph - 0.00 in Snow Light Snow
6:14 PM 28.4 °F 24.6 °F 24.8 °F 86% 29.79 in 1.8 mi WSW 3.5 mph - 0.00 in Snow Light Snow
6:30 PM 28.4 °F 23.3 °F 24.8 °F 86% 29.79 in 2.0 mi WSW 4.6 mph - 0.00 in Snow Light Snow
6:40 PM 28.4 °F - 24.8 °F 86% 29.79 in 3.0 mi Calm Calm - 0.00 in Snow Light Snow
6:54 PM 28.9 °F 23.9 °F 24.1 °F 82% 29.83 in 3.0 mi WSW 4.6 mph - 0.00 in Snow Light Snow
7:01 PM 28.4 °F 24.6 °F 24.8 °F 86% 29.80 in 4.0 mi West 3.5 mph - 0.00 in Snow Light Snow
7:15 PM 28.4 °F 24.6 °F 24.8 °F 86% 29.80 in 8.0 mi WSW 3.5 mph - 0.00 in   Overcast
7:51 PM 28.4 °F - 24.8 °F 86% 29.81 in 8.0 mi Calm Calm - 0.00 in   Overcast
7:54 PM 28.0 °F - 24.1 °F 85% 29.84 in 8.0 mi Calm Calm - 0.00 in Snow Light Snow
8:44 PM 26.6 °F - 21.2 °F 80% 29.82 in 10.0 mi Calm Calm - 0.00 in   Overcast
8:54 PM 26.1 °F - 21.9 °F 84% 29.85 in 8.0 mi Calm Calm - 0.00 in   Overcast
9:54 PM 26.1 °F - 21.9 °F 84% 29.86 in 10.0 mi Calm Calm - N/A   Overcast
10:40 PM 24.8 °F - 23.0 °F 93% 29.82 in 10.0 mi Calm Calm - N/A   Overcast
10:54 PM 25.0 °F - 21.9 °F 88% 29.85 in 9.0 mi Calm Calm - N/A   Overcast
11:02 PM 26.6 °F - 23.0 °F 86% 29.82 in 8.0 mi Calm Calm - N/A   Overcast
11:54 PM 25.0 °F - 21.9 °F 88% 29.84 in 7.0 mi Calm Calm - N/A   Overcast